Stations météo

réclame
Mon MeteoGroup
Katterjakk A, Suède (2019): Température de l'air & dewpoint: 18.01.2020 13:00:00 - 24.01.2020 13:00:00 (CET)Katterjakk A, Suède (2019): Vitesse du vent & gusts: 18.01.2020 13:00:00 - 24.01.2020 13:00:00 (CET)Katterjakk A, Suède (2019): Direction du vent: 18.01.2020 13:00:00 - 24.01.2020 13:00:00 (CET)Katterjakk A, Suède (2019): reduced air pressure: 18.01.2020 13:00:00 - 24.01.2020 13:00:00 (CET)Katterjakk A, Suède (2019): visibility: 18.01.2020 13:00:00 - 24.01.2020 13:00:00 (CET)Katterjakk A, Suède (2019): Quantités de précipitations: 18.01.2020 13:00:00 - 24.01.2020 13:00:00 (CET)
Date & Time tt [°C] td [°C] ff [km/h] ff [knt] fx [km/h] fx [knt] dd ppp [hPa] vv [km] rr [mm]
24.01.2020 13:00:00 - - - - - - - - - -
24.01.2020 12:00:00 -7,4 -8,6 5 3 23 13 W 985,4 50 0,0
24.01.2020 11:00:00 -6,1 -8,8 3 1 34 18 W 985,8 24 0,0
24.01.2020 10:00:00 -3,8 -8,7 24 13 34 18 SW 985,6 50 0,0
24.01.2020 09:00:00 -7,2 -10,5 19 10 27 15 WSW 986,3 50 0,0
24.01.2020 08:00:00 -6,0 -7,2 14 8 19 10 W 986,6 50 0,7
24.01.2020 07:00:00 -4,0 -5,1 14 8 21 12 W 986,5 22 0,2
24.01.2020 06:00:00 -3,8 -4,6 9 5 17 9 W 986,3 1,6 0,1
24.01.2020 05:00:00 -4,2 -5,2 13 7 31 17 W 987,0 2,5 0,2
24.01.2020 04:00:00 -3,3 -4,4 24 13 37 20 W 987,0 4,6 0,6
24.01.2020 03:00:00 -3,1 -4,1 - - 52 28 - 987,2 1,9 0,5
24.01.2020 02:00:00 -2,9 -3,6 - - 52 28 - 986,8 0,3 1,3
24.01.2020 01:00:00 -2,6 -3,1 19 10 33 18 W 986,4 0,3 0,6
24.01.2020 00:00:00 -1,8 -3,5 25 13 38 20 W 986,5 33 0,5
23.01.2020 23:00:00 -1,4 -2,2 26 14 51 27 W 986,7 5 0,2
23.01.2020 22:00:00 -1,2 -2,3 35 19 60 33 W 986,6 10 0,7
23.01.2020 21:00:00 -0,1 -0,9 24 13 45 25 W 986,3 16 0,2
23.01.2020 20:00:00 -1,0 -1,6 28 15 45 24 W 986,5 1,1 0,5
23.01.2020 19:00:00 0,1 -1,2 25 14 36 20 W 986,3 3,0 0,8
23.01.2020 18:00:00 0,2 -1,6 17 9 40 22 W 986,4 7 0,2
23.01.2020 17:00:00 0,2 -0,2 34 19 42 23 W 986,8 5 2,2
23.01.2020 16:00:00 -5,0 -5,5 5 3 12 6 N 988,4 1,8 0,6
23.01.2020 15:00:00 -4,6 -5,1 4 2 10 5 WNW 988,8 0,8 2,2
23.01.2020 14:00:00 -4,6 -5,1 7 4 11 6 NNW 989,3 1,0 0,5
23.01.2020 13:00:00 -4,5 -5,0 4 2 11 6 N 990,1 5 0,6
23.01.2020 12:00:00 -4,3 -4,8 8 5 18 10 NE 991,8 2,2 0,5
23.01.2020 11:00:00 -4,1 -4,6 6 4 20 11 SE 993,4 8 0,4
23.01.2020 10:00:00 -3,6 -4,1 6 4 18 10 NE 994,6 1,1 1,6
23.01.2020 09:00:00 -4,5 -5,0 7 4 16 9 NE 996,3 0,5 1,3
23.01.2020 08:00:00 -4,4 -4,9 10 5 17 9 N 998,1 1,4 0,7
23.01.2020 07:00:00 -4,7 -5,5 5 3 8 4 W 999,7 3,9 0,1
23.01.2020 06:00:00 -5,1 -5,8 5 3 16 8 NNW 1002,6 29 0,0
23.01.2020 05:00:00 -5,0 -5,5 10 5 23 12 ENE 1004,6 16 0,0
23.01.2020 04:00:00 -4,4 -5,5 6 4 24 13 ENE 1006,6 50 0,0
23.01.2020 03:00:00 -3,9 -5,3 16 8 23 13 SW 1008,2 50 0,1
23.01.2020 02:00:00 -3,5 -4,5 14 7 20 11 SW 1010,0 7 0,0
23.01.2020 01:00:00 -3,4 -4,4 15 8 28 15 W 1011,3 45 0,0
23.01.2020 00:00:00 -3,8 -4,3 9 5 33 18 WNW 1012,0 2,5 0,3
22.01.2020 23:00:00 -3,6 -4,4 26 14 37 20 WNW 1012,5 11 0,1
22.01.2020 22:00:00 -3,9 -4,6 24 13 42 23 WNW 1012,3 1,8 0,2
22.01.2020 21:00:00 -3,5 -4,2 20 11 40 21 W 1013,0 0,7 0,3
22.01.2020 20:00:00 -3,7 -4,7 32 17 53 29 W 1013,6 4,7 0,6
22.01.2020 19:00:00 -3,6 -4,3 26 14 54 29 WNW 1013,5 3,6 0,2
22.01.2020 18:00:00 -3,7 -4,5 42 23 55 30 W 1013,2 1,3 0,2
22.01.2020 17:00:00 -3,9 -5,0 32 18 50 27 W 1013,2 1,1 0,0
22.01.2020 16:00:00 -4,0 -6,8 41 22 55 30 W 1013,1 4,1 0,0
22.01.2020 15:00:00 -4,3 -7,4 32 17 50 27 W 1013,2 8 0,0
22.01.2020 14:00:00 -4,5 -7,9 35 19 51 28 W 1012,6 11 0,0
22.01.2020 13:00:00 -4,8 -6,3 38 20 53 29 W 1012,4 3,4 0,0
22.01.2020 12:00:00 -4,6 -6,1 30 16 46 25 W 1011,9 9 0,0
22.01.2020 11:00:00 -4,6 -5,8 31 17 48 26 WNW 1011,2 5 0,0
22.01.2020 10:00:00 -4,9 -5,7 29 16 44 24 WNW 1010,0 6 0,4
22.01.2020 09:00:00 -4,6 -5,3 29 16 45 24 WNW 1008,8 0,6 0,2
22.01.2020 08:00:00 -4,6 -5,3 16 9 38 21 NW 1008,1 1,8 0,1
22.01.2020 07:00:00 -4,4 -6,2 26 14 52 28 WNW 1006,7 8 0,0
22.01.2020 06:00:00 -3,3 -4,4 29 16 52 28 WNW 1004,7 4,1 0,0
22.01.2020 05:00:00 -3,0 -4,1 29 15 46 25 W 1003,6 8 0,2
22.01.2020 04:00:00 -2,7 -3,2 29 16 45 24 W 1002,4 2,2 0,2
22.01.2020 03:00:00 -3,4 -3,9 33 18 51 28 WNW 1001,2 0,3 0,3
22.01.2020 02:00:00 -3,5 -4,5 36 19 44 24 W 999,7 0,9 0,1
22.01.2020 01:00:00 -3,4 -5,7 29 16 39 21 W 998,2 11 0,0
22.01.2020 00:00:00 -3,6 -5,8 27 15 37 20 W 996,9 8 0,2
21.01.2020 23:00:00 -3,9 -5,4 21 12 32 18 W 995,8 50 0,0
21.01.2020 22:00:00 -4,3 -5,7 27 15 37 20 W 994,6 50 0,0
21.01.2020 21:00:00 -4,0 -5,1 26 14 42 23 W 993,5 15 0,0
21.01.2020 20:00:00 -3,9 -4,7 29 16 52 28 W 992,2 1,1 0,3
21.01.2020 19:00:00 -4,1 -4,9 32 18 49 26 W 992,0 1,1 0,1
21.01.2020 18:00:00 -4,2 -5,2 33 18 49 27 W 991,3 5 0,2
21.01.2020 17:00:00 -3,9 -4,4 37 20 59 32 W 991,1 0,6 0,2
21.01.2020 16:00:00 -3,7 -4,4 40 22 57 31 W 990,3 0,6 0,1
21.01.2020 15:00:00 -3,9 -4,6 44 24 67 36 W 990,3 0,7 0,5
21.01.2020 14:00:00 -3,8 -4,3 37 20 63 34 W 990,0 0,8 0,6
21.01.2020 13:00:00 -4,1 -4,6 31 17 56 30 W 989,7 0,2 0,3
21.01.2020 12:00:00 -3,7 -4,1 27 15 54 29 W 990,0 1,1 1,5
21.01.2020 11:00:00 -4,4 -4,9 36 19 56 30 W 990,7 0,1 0,3
21.01.2020 10:00:00 -3,6 -4,3 34 18 56 30 W 990,8 0,8 0,9
21.01.2020 09:00:00 -3,9 -4,6 31 17 52 28 W 990,9 0,5 0,1
21.01.2020 08:00:00 -3,0 -3,5 31 17 61 33 W 991,0 2,4 0,7
21.01.2020 07:00:00 -2,9 -3,9 29 15 61 33 W 991,1 9 0,1
21.01.2020 06:00:00 -2,8 -3,1 35 19 66 35 W 991,2 0,5 0,7
21.01.2020 05:00:00 -2,5 -2,9 46 25 75 40 W 991,6 0,8 0,6
21.01.2020 04:00:00 -1,4 -1,7 39 21 68 37 W 989,9 0,7 1,1
21.01.2020 03:00:00 -1,7 -2,1 15 8 23 12 SW 989,2 0,8 0,8
21.01.2020 02:00:00 -1,6 -2,4 21 11 38 20 SW 989,6 1,1 0,5
21.01.2020 01:00:00 -1,2 -1,9 21 11 32 17 W 990,3 1,4 0,2
21.01.2020 00:00:00 -0,9 -3,1 21 12 34 19 W 990,6 47 0,0
20.01.2020 23:00:00 -0,4 -1,7 27 15 41 22 W 991,0 3,9 0,1
20.01.2020 22:00:00 -0,7 -2,0 22 12 41 22 WSW 991,4 47 0,1
20.01.2020 21:00:00 -0,8 -0,9 24 13 67 36 WSW 991,2 9 0,7
20.01.2020 20:00:00 0,1 0,0 26 14 42 23 WNW 989,8 0,7 1,3
20.01.2020 19:00:00 0,0 -0,1 16 8 23 12 SW 989,1 1,8 1,4
20.01.2020 18:00:00 -0,1 -0,2 14 8 21 11 NW 990,0 1,2 0,9
20.01.2020 17:00:00 0,2 0,1 9 5 13 7 NW 990,7 4,1 0,8
20.01.2020 16:00:00 0,8 0,2 6 4 22 12 WSW 992,2 8 0,6
20.01.2020 15:00:00 1,2 0,2 18 10 27 15 SW 993,9 12 0,4
20.01.2020 14:00:00 1,7 0,1 18 10 32 18 W 995,8 4,3 1,2
20.01.2020 13:00:00 1,8 0,0 18 10 39 21 WSW 997,1 5 0,5
20.01.2020 12:00:00 2,2 -0,6 22 12 43 23 W 998,4 5 0,5
20.01.2020 11:00:00 2,3 -0,8 28 15 50 27 W 999,0 12 0,1
20.01.2020 10:00:00 2,0 -0,3 25 13 45 24 WSW 999,4 13 1,3
20.01.2020 09:00:00 1,3 0,4 29 16 47 26 WSW 999,4 2,1 1,2
20.01.2020 08:00:00 1,1 1,0 27 15 45 24 WSW 999,1 4,2 1,0
20.01.2020 07:00:00 -5,3 -6,0 6 4 14 8 SW 999,4 1,4 1,2
20.01.2020 06:00:00 -6,2 -7,0 7 4 17 9 WNW 999,6 4,9 0,3
20.01.2020 05:00:00 -6,5 -7,3 11 6 20 11 NNE 1000,5 1,4 0,7
20.01.2020 04:00:00 -7,9 -8,8 3 2 26 14 NNW 1002,0 4,5 0,3
20.01.2020 03:00:00 -7,6 -8,7 14 8 23 12 NNE 1004,0 14 0,0
20.01.2020 02:00:00 -7,3 -8,2 9 5 16 9 N 1006,7 15 0,0
20.01.2020 01:00:00 -7,4 -8,3 8 5 13 7 NNW 1009,2 22 -
20.01.2020 00:00:00 -6,8 -7,6 4 2 10 5 W 1010,8 15 0,0
19.01.2020 23:00:00 -7,2 -8,1 4 2 8 4 ENE 1012,5 2,2 0,9
19.01.2020 22:00:00 -7,4 -8,3 3 2 6 3 NNW 1013,0 1,9 0,0
19.01.2020 21:00:00 -7,6 -8,5 3 1 7 4 NNW 1013,6 8 0,0
19.01.2020 20:00:00 -7,9 -9,0 0 0 8 4 N 1014,2 3,0 0,0
19.01.2020 19:00:00 -9,0 -10,2 4 2 12 7 SE 1015,0 50 0,0
19.01.2020 18:00:00 -7,8 -8,7 3 2 7 4 NNE 1015,5 33 0,0
19.01.2020 17:00:00 -7,9 -9,0 3 2 9 5 N 1016,0 50 0,0
19.01.2020 16:00:00 -7,9 -9,0 4 2 9 5 ESE 1016,0 47 0,0
19.01.2020 15:00:00 -8,1 -9,2 4 2 8 5 N 1015,6 50 0,0
19.01.2020 14:00:00 -8,5 -9,6 3 1 9 5 ESE 1015,3 50 0,0
19.01.2020 13:00:00 -8,4 -9,5 9 5 13 7 S 1014,8 50 0,0
19.01.2020 12:00:00 -9,4 -10,6 10 5 19 10 S 1015,0 20 0,0
19.01.2020 11:00:00 -9,5 -10,7 6 4 21 12 S 1013,4 49 0,0
19.01.2020 10:00:00 -10,5 -11,8 5 3 20 11 S 1012,8 50 0,0
19.01.2020 09:00:00 -11,7 -13,0 13 7 18 10 S 1012,5 50 0,0
19.01.2020 08:00:00 -10,7 -11,9 15 8 22 12 S 1012,0 2,2 0,0
19.01.2020 07:00:00 -10,6 -11,8 18 10 23 12 S 1010,7 18 0,0
19.01.2020 06:00:00 -10,4 -11,6 15 8 19 10 S 1009,8 16 0,0
19.01.2020 05:00:00 -11,3 -12,7 6 4 18 10 S 1009,3 32 0,0
19.01.2020 04:00:00 -12,2 -13,5 6 4 10 6 SSW 1008,7 38 0,0
19.01.2020 03:00:00 -12,3 -13,6 3 2 14 8 NNW 1008,2 19 0,0
19.01.2020 02:00:00 -12,8 -14,5 5 3 11 6 SSW 1007,5 50 0,0
19.01.2020 01:00:00 -8,4 -9,6 5 3 14 7 NW 1006,4 14 0,0
19.01.2020 00:00:00 -8,9 -10,2 4 2 11 6 NW 1006,0 50 0,0
18.01.2020 23:00:00 -9,0 -10,3 5 3 10 5 NW 1005,7 50 0,0
18.01.2020 22:00:00 -10,0 -11,9 3 2 11 6 S 1005,4 50 0,0
18.01.2020 21:00:00 -8,3 -9,8 8 4 13 7 N 1005,0 50 0,0
18.01.2020 20:00:00 -9,4 -10,7 9 5 17 9 NW 1004,8 50 0,0
18.01.2020 19:00:00 -9,5 -11,1 6 3 18 10 NNW 1004,6 50 0,0
18.01.2020 18:00:00 -10,4 -11,9 9 5 22 12 NNW 1004,3 50 0,0
18.01.2020 17:00:00 -12,1 -14,1 5 3 16 9 WNW 1004,5 50 0,0
18.01.2020 16:00:00 -10,5 -12,1 8 4 20 11 NNW 1004,2 50 0,0
18.01.2020 15:00:00 -10,3 -11,5 11 6 16 9 NNW 1004,0 50 0,0
18.01.2020 14:00:00 -10,2 -11,5 10 6 - - N 1004,2 50 0,0
18.01.2020 13:00:00 -9,3 -10,9 12 6 18 10 NNW 1004,3 50 0,0

tt = Température de l'air
td = dewpoint
ff = Vitesse du vent
fx = gusts
dd = Direction du vent
ppp = reduced air pressure
vv = visibility
rr = Quantités de précipitations

stations d'obs. à proximité